Regional Weather Roundup
Issued by NWS

Home | Current Version | Previous Version | Graphics & Text | Print | Product List | Glossary On
Versions: 1 2 3 4 5 6 7 8 9 10 11 12 13 14 15 16 17 18 19 20 21 22 23 24 25 26 27 28 29 30 31 32 33 34 35 36 37 38 39 40 41 42 43 44 45 46 47 48 49 50
000
ASUS43 KMPX 161310
RWRMN
WEATHER ROUNDUP FOR MINNESOTA
NATIONAL WEATHER SERVICE TWIN CITIES/CHANHASSEN MN
800 AM CDT TUE SEP 16 2014


NOTE: "FAIR" INDICATES FEW OR NO CLOUDS BELOW 12,000 FEET WITH NO
SIGNIFICANT WEATHER AND/OR OBSTRUCTIONS TO VISIBILITY. N/A MEANS
CURRENT SKY AND/OR WEATHER CONDITIONS ARE NOT AVAILABLE.

MNZ060>063-068>070-161400-
   Twin Cities Metro

CITY           SKY/WX    TMP DP  RH WIND       PRES   REMARKS
TWIN CITIES    SUNNY     44  40  85 CALM      30.19S
ST PAUL        SUNNY     45  43  93 SE5       30.20S
CRYSTAL        SUNNY     44  40  85 CALM      30.17F
BLAINE         SUNNY     45  45 100 S5        30.17F
LAKEVILLE      SUNNY     39  39 100 CALM      30.19F
EDEN PRAIRIE   SUNNY     42  40  92 SW3       30.18S
SOUTH ST PAUL  SUNNY     44  42  91 CALM      30.19F
LAKE ELMO      FAIR      41  41 100 S3        30.19F
$$
MNZ001>005-007-008-013>017-022>024-027-028-161400-
   Northwest Minnesota

CITY           SKY/WX    TMP DP  RH WIND       PRES   REMARKS
BEMIDJI        CLEAR     44  38  78 SW5       30.08R
HALLOCK        PTCLDY    45  43  93 S7        30.00S
ROSEAU         CLOUDY    52  43  71 SW9       30.00R
WARROAD        CLOUDY    48  43  81 SW9       30.00R
THIEF RVR FALL CLEAR     45  37  76 S8        30.05S
CROOKSTON      CLEAR     43  39  87 S7        30.07S
FOSSTON        CLEAR     41  36  81 S9        30.09S
DETROIT LAKES  CLEAR     46  39  76 SW6       30.12S
MOORHEAD       CLEAR     43  41  93 S8        30.11S
PARK RAPIDS    CLEAR     42  38  85 SW3       30.11S
MAHNOMEN       FAIR      41  37  85 S7        30.10S
$$
MNZ006-009>011-018-025>026-161400-
   North Central Minnesota

CITY           SKY/WX    TMP DP  RH WIND       PRES   REMARKS
BAUDETTE       CLOUDY    49  40  71 SW8G18    29.99S
FLAG ISLAND    CLOUDY    52  41  66 W13       29.95R
INTL FALLS     CLOUDY    47  42  83 SW8       29.98F
WASKISH        PTCLDY    52  43  71 SW8       30.03F
BIG FORK       SUNNY     46  39  76 SW9       30.06S
LONGVILLE      SUNNY     46  39  76 SW7       30.10R
GRAND RAPIDS   SUNNY     48  36  61 W8        30.08S
CRANE LAKE     MOSUNNY   45  39  81 SW6       30.02S
ORR            MOSUNNY   41  37  87 CALM      30.01S
COOK           SUNNY     45  39  81 SW8       30.04F
WALKER         FAIR      48  37  64 W9        30.09S
$$
MNZ012-019>021-037-161400-
   Northeast Minnesota

CITY           SKY/WX    TMP DP  RH WIND       PRES   REMARKS
DULUTH         MOSUNNY   48  36  63 W15       30.09F
ELY            MOSUNNY   43  37  81 SW8       30.03F
HIBBING        SUNNY     36  33  89 CALM      30.07F
EVELETH        SUNNY     39  36  87 SW6       30.08S
DULUTH HARBOR  SUNNY     46  41  81 S16       30.10S
TWO HARBORS    MOSUNNY   48  36  61 W12G17    30.05F
SILVER BAY     SUNNY     46  39  76 W7        30.03F
GRAND MARAIS     N/A     51  42  71 W6        30.01F
G MARAIS ARPRT MOSUNNY   43  36  75 W10       30.01F
$$
MNZ029>031-032-039>041-046>048-054>057-064-161400-
   West Central Minnesota

CITY           SKY/WX    TMP DP  RH WIND       PRES   REMARKS
FERGUS FALLS   CLEAR     43  36  75 SE5       30.14F
WHEATON        CLEAR     41  36  81 S6        30.14F
MORRIS         CLEAR     39  37  93 S6        30.13F
ALEXANDRIA     CLEAR     45  38  76 SW9       30.15F
ELBOW LAKE     FAIR      40  38  91 S6        30.13S
WADENA         CLEAR     45  37  76 SW6       30.12F
GLENWOOD       CLEAR     41  37  87 SW6       30.15F
APPLETON       CLEAR     39  37  93 CALM      30.15F
BENSON         CLEAR     37  36  93 S5        30.16F
ORTONVILLE     CLEAR     43  37  81 S3        30.14F
MADISON        CLEAR     43  39  87 SW5       30.15S
WILLMAR        FAIR      43  37  81 CALM      30.18F
$$
MNZ033>034-036-042>043-049>051-058-059-161400-
   Central Minnesota

CITY           SKY/WX    TMP DP  RH WIND       PRES   REMARKS
ST CLOUD       SUNNY     42  39  89 CALM      30.16S
SAUK CENTRE    FAIR      40  37  86 CALM      30.16S
PAYNESVILLE    CLEAR     35  36 100 CALM      30.17F
AITKIN         SUNNY     48  39  71 SW5       30.10F
PINE RIVER     SUNNY     45  37  76 SW3       30.14F
BRAINERD       SUNNY     40  37  89 S3        30.13F
STAPLES        CLEAR     39  37  93 CALM      30.13S
LONG PRAIRIE   FAIR      41  36  81 S3        30.15S
LITTLE FALLS   SUNNY     37  36  93 CALM      30.14F
LITCHFIELD     SUNNY     46  41  81 SW3       30.18S
BUFFALO        SUNNY     42  38  87 CALM      30.19S
MAPLE LAKE     SUNNY     45  41  86 SW3       30.18S
$$
MNZ037-044-045-052-053-161400-
   East Central Minnesota

CITY           SKY/WX    TMP DP  RH WIND       PRES   REMARKS
PRINCETON      SUNNY     39  37  93 CALM      30.16F VSB 1
MORA           SUNNY     41  37  87 CALM      30.17S
CAMBRIDGE      SUNNY     45  36  70 CALM      30.15S
RUSH CITY      SUNNY     39  38  97 CALM      30.16F
MOOSE LAKE     SUNNY     36  36 100 CALM      30.11F
HINCKLEY       FAIR      41  39  93 CALM      30.15S
CLOQUET        SUNNY     45  36  70 SW8       30.10F
MCGREGOR       SUNNY     43  37  81 CALM      30.12F
$$
MNZ071>073-080-081-089-090-097-098-161400-
   Southwest Minnesota

CITY           SKY/WX    TMP DP  RH WIND       PRES   REMARKS
MONTEVIDEO     CLEAR     45  39  81 SW3       30.17F
GRANITE FALLS  CLEAR     38  38  97 S6        30.18F
CANBY          CLEAR     47  41  77 SW8       30.17S
MARSHALL       CLEAR     45  39  81 SW8       30.16S
REDWOOD FALLS  CLEAR     43  39  86 SW3       30.18F
OLIVIA         CLEAR     41  37  87 CALM      30.17F
PIPESTONE      CLEAR     39  37  93 SW3       30.18F
WINDOM         CLEAR     39  37  93 CALM      30.20F
WORTHINGTON    CLEAR     43  39  87 S6        30.21F
JACKSON        CLEAR     43  39  87 S5        30.21S
TRACY          CLEAR     46  42  85 SW9       30.18S
SLAYTON        CLEAR     42  40  91 CALM      30.20S
$$
MNZ065>067-074>077-082>085-091>093-161400-
   South Central Minnesota

CITY           SKY/WX    TMP DP  RH WIND       PRES   REMARKS
MANKATO        SUNNY     41  36  81 S6        30.20S
NEW ULM        SUNNY     43  41  93 SW3       30.19F
ST JAMES       SUNNY     45  39  81 CALM      30.21S
FAIRMONT       SUNNY     45  37  76 SW6       30.21S
GLENCOE        SUNNY     42  37  83 S5        30.18S
FARIBAULT      SUNNY     45  37  76 S3        30.20F
OWATONNA       SUNNY     43  39  87 S3        30.21F
WASECA         SUNNY     37  34  87 S3        30.22F
ALBERT LEA     SUNNY     43  43 100 CALM      30.21F
$$
MNZ078>079-086>088-094>096-161400-
   Southeast Minnesota

CITY           SKY/WX    TMP DP  RH WIND       PRES   REMARKS
ROCHESTER      SUNNY     43  39  86 SW5       30.22S
RED WING       SUNNY     41  39  93 CALM      30.19F
STANTON        SUNNY     42  39  89 S3        30.18F
DODGE CENTER   SUNNY     43  41  93 SW5       30.21F
WINONA         FOG       41  41 100 CALM      30.22F VSB<1/4
AUSTIN         SUNNY     39  39 100 CALM      30.22S
PRESTON        SUNNY     42  42 100 CALM      30.22F
$$
ABBREVIATIONS USED IN REMARKS
   TC - TEMPERATURES IN CELSIUS
  WCI - WIND CHILL INDEX
   HX - HEAT INDEX
  VSB - VISIBILITY
$$


USA.gov is the U.S. government's official web portal to all federal, state and local government web resources and services.